Athens, OH

8:55 PM EDT on July 25, 2017 (GMT -0400)
Ohio University

Weather History for KUNI - November, 2012

Change the Weather History Date:

Wednesday, November 7, 2012

  Actual Average (KPKB) Record (KPKB)
Temperature  
Mean Temperature 42 °F -  
Max Temperature 54 °F 53 °F 82 °F (1938)
Min Temperature 29 °F 37 °F 18 °F (1930)
Degree Days  
Heating Degree Days 23    
Moisture  
Dew Point 29 °F    
Average Humidity 67    
Maximum Humidity 94    
Minimum Humidity 38    
Precipitation  
Precipitation 0.00 in - - ()
Sea Level Pressure  
Sea Level Pressure 29.94 in    
Wind  
Wind Speed 2 mph (NNE)    
Max Wind Speed 9 mph    
Max Gust Speed 12 mph    
Visibility 10 miles    
Events      
Averages and records for this station are not official NWS values.
T = Trace of Precipitation, MM = Missing Value Source: NWS Daily Summary

Daily Weather History Graph

Daily Weather History Graph

Search for Another Location

Airport or City:

Trip Planner

Search our weather history database for the weather conditions in past years. The results will help you decide how hot, cold, wet, or windy it might be!

Date:

Astronomy

Nov. 07, 2012 Rise Set
Actual Time 7:03 AM EST 5:20 PM EST
Civil Twilight 6:35 AM EST 5:49 PM EST
Nautical Twilight 6:03 AM EST 6:21 PM EST
Astronomical Twilight 5:32 AM EST 6:52 PM EST
Moon No Moon Rise 1:26 PM EST (11/7)
Length of Visible Light 11h 13m
Length of Day
10h 17m
Last Quarter, 43% of the Moon is Illuminated
Nov 7
Last Quarter
Nov 13
New
Nov 20
First Quarter
Nov 28
Full
Dec 6
Last Quarter

Hourly Weather History & Observations

Time (EST) Temp. Windchill Dew Point Humidity Pressure Visibility Wind Dir Wind Speed Gust Speed Precip Events Conditions
12:15 AM 32.0 °F - 29.3 °F 90% 29.90 in 10.0 mi Calm Calm - N/A   Mostly Cloudy
12:35 AM 32.0 °F - 29.3 °F 90% 29.90 in 10.0 mi Calm Calm - N/A   Mostly Cloudy
12:55 AM 31.1 °F - 28.4 °F 90% 29.89 in 10.0 mi Calm Calm - N/A   Scattered Clouds
1:15 AM 31.6 °F - 29.7 °F 92% 29.89 in 10.0 mi Calm Calm - N/A   Mostly Cloudy
1:35 AM 31.6 °F - 29.3 °F 91% 29.89 in 10.0 mi Calm Calm - N/A   Scattered Clouds
1:55 AM 32.0 °F - 29.8 °F 92% 29.89 in 10.0 mi Calm Calm - N/A   Mostly Cloudy
2:15 AM 32.0 °F - 29.3 °F 90% 29.89 in 10.0 mi Calm Calm - N/A   Scattered Clouds
2:35 AM 32.2 °F - 29.5 °F 90% 29.89 in 10.0 mi Calm Calm - N/A   Clear
2:55 AM 32.2 °F - 29.3 °F 89% 29.89 in 10.0 mi Calm Calm - N/A   Clear
3:15 AM 32.0 °F - 29.3 °F 90% 29.89 in 10.0 mi Calm Calm - N/A   Clear
3:35 AM 32.0 °F - 29.3 °F 90% 29.89 in 10.0 mi Calm Calm - N/A   Scattered Clouds
3:55 AM 32.0 °F - 28.9 °F 88% 29.89 in 10.0 mi Calm Calm - N/A   Overcast
4:15 AM 31.3 °F - 28.4 °F 89% 29.89 in 10.0 mi Calm Calm - N/A   Mostly Cloudy
4:35 AM 30.9 °F - 28.4 °F 90% 29.89 in 10.0 mi Calm Calm - N/A   Scattered Clouds
4:55 AM 30.2 °F - 28.4 °F 93% 29.88 in 10.0 mi Calm Calm - N/A   Clear
5:15 AM 30.0 °F - 28.4 °F 94% 29.88 in 10.0 mi Calm Calm - N/A   Scattered Clouds
5:35 AM 30.6 °F - 28.4 °F 92% 29.88 in 10.0 mi Calm Calm - N/A   Scattered Clouds
5:55 AM 30.7 °F - 28.8 °F 92% 29.89 in 10.0 mi Calm Calm - N/A   Clear
6:35 AM 31.5 °F - 28.9 °F 90% 29.89 in 10.0 mi Calm Calm - N/A   Clear
6:55 AM 32.0 °F - 28.8 °F 88% 29.89 in 10.0 mi Calm Calm - N/A   Clear
7:15 AM 32.0 °F - 28.9 °F 88% 29.90 in 10.0 mi Calm Calm - N/A   Clear
8:15 AM 33.3 °F - 30.4 °F 89% 29.91 in 10.0 mi Calm Calm - N/A   Clear
8:35 AM 34.7 °F - 30.9 °F 86% 29.92 in 10.0 mi Calm Calm - N/A   Clear
8:55 AM 35.8 °F 31.9 °F 31.5 °F 84% 29.93 in 10.0 mi ENE 4.6 mph - N/A   Clear
9:15 AM 36.5 °F 31.8 °F 31.1 °F 81% 29.94 in 10.0 mi NE 5.8 mph - N/A   Clear
9:35 AM 38.3 °F - 31.6 °F 77% 29.94 in 10.0 mi Calm Calm - N/A   Clear
9:55 AM 41.4 °F 39.4 °F 32.2 °F 70% 29.94 in 10.0 mi NNE 3.5 mph - N/A   Clear
10:15 AM 41.9 °F 40.0 °F 32.0 °F 68% 29.94 in 10.0 mi ENE 3.5 mph - N/A   Clear
10:35 AM 43.2 °F 39.7 °F 32.4 °F 66% 29.94 in 10.0 mi ENE 5.8 mph - N/A   Clear
10:55 AM 44.2 °F 42.7 °F 31.8 °F 62% 29.94 in 10.0 mi NNE 3.5 mph - N/A   Clear
11:15 AM 46.2 °F 45.0 °F 31.8 °F 57% 29.94 in 7.0 mi NNE 3.5 mph - N/A   Clear
11:35 AM 48.0 °F - 32.0 °F 54% 29.93 in 10.0 mi NNE 6.9 mph - N/A   Clear
11:55 AM 49.3 °F - 32.0 °F 51% 29.93 in 10.0 mi NNE 3.5 mph - N/A   Clear
12:15 PM 50.2 °F - 31.8 °F 49% 29.93 in 10.0 mi ENE 8.1 mph - N/A   Clear
12:35 PM 51.3 °F - 31.8 °F 47% 29.92 in 10.0 mi ENE 8.1 mph - N/A   Clear
12:55 PM 52.2 °F - 31.5 °F 45% 29.91 in 10.0 mi NNE 6.9 mph - N/A   Clear
1:15 PM 52.3 °F - 30.6 °F 43% 29.91 in 10.0 mi NE 4.6 mph - N/A   Clear
1:35 PM 53.2 °F - 30.0 °F 41% 29.91 in 10.0 mi North 5.8 mph - N/A   Clear
2:15 PM 53.2 °F - 29.5 °F 40% 29.90 in 10.0 mi NE 8.1 mph - N/A   Clear
2:35 PM 54.1 °F - 29.7 °F 39% 29.90 in 10.0 mi North 5.8 mph - N/A   Clear
2:55 PM 53.8 °F - 29.5 °F 39% 29.90 in 10.0 mi North 5.8 mph - N/A   Clear
3:15 PM 53.6 °F - 28.4 °F 38% 29.90 in 10.0 mi North 6.9 mph - N/A   Clear
3:35 PM 53.2 °F - 28.9 °F 39% 29.91 in 10.0 mi NNE 9.2 mph - N/A   Clear
3:55 PM 53.6 °F - 29.5 °F 40% 29.91 in 10.0 mi NNE 8.1 mph - N/A   Clear
4:15 PM 53.4 °F - 28.8 °F 39% 29.92 in 10.0 mi NNE 9.2 mph - N/A   Clear
4:35 PM 53.4 °F - 28.8 °F 39% 29.93 in 10.0 mi North 6.9 mph - N/A   Clear
4:55 PM 52.7 °F - 29.3 °F 41% 29.94 in 10.0 mi North 4.6 mph - N/A   Clear
5:15 PM 51.4 °F - 29.5 °F 43% 29.95 in 10.0 mi North 6.9 mph - N/A   Clear
5:35 PM 50.5 °F - 29.3 °F 44% 29.96 in 10.0 mi North 3.5 mph - N/A   Clear
6:15 PM 48.6 °F - 27.3 °F 44% 29.97 in 10.0 mi NNE 3.5 mph - N/A   Clear
6:35 PM 48.0 °F - 27.1 °F 44% 29.98 in 10.0 mi NNE 3.5 mph - N/A   Clear
6:55 PM 47.5 °F - 25.9 °F 43% 29.99 in 10.0 mi North 4.6 mph - N/A   Clear
7:15 PM 46.8 °F - 25.5 °F 43% 30.00 in 7.0 mi NNE 5.8 mph - N/A   Clear
7:35 PM 46.4 °F 42.9 °F 25.3 °F 44% 30.01 in 10.0 mi NNE 6.9 mph - N/A   Clear
7:55 PM 45.7 °F 42.0 °F 25.9 °F 46% 30.01 in 10.0 mi NNE 6.9 mph 11.5 mph N/A   Clear
8:15 PM 43.5 °F 41.9 °F 26.2 °F 51% 30.02 in 10.0 mi ENE 3.5 mph - N/A   Clear
8:35 PM 42.8 °F 40.1 °F 25.7 °F 51% 30.02 in 10.0 mi NE 4.6 mph - N/A   Clear
8:55 PM 41.5 °F - 26.4 °F 55% 30.03 in 10.0 mi Calm Calm - N/A   Clear
9:15 PM 41.9 °F - 25.9 °F 53% 30.04 in 10.0 mi Calm Calm - N/A   Clear
9:35 PM 38.7 °F - 26.4 °F 61% 30.04 in 10.0 mi Calm Calm - N/A   Clear
9:55 PM 36.0 °F - 27.7 °F 72% 30.04 in 10.0 mi Calm Calm - N/A   Clear
10:35 PM 33.8 °F - 26.4 °F 74% 30.06 in 10.0 mi Calm Calm - N/A   Clear
10:55 PM 32.2 °F - 26.4 °F 79% 30.06 in 10.0 mi Calm Calm - N/A   Clear
11:15 PM 32.0 °F - 26.4 °F 80% 30.07 in 10.0 mi Calm Calm - N/A   Clear
11:35 PM 31.6 °F - 26.4 °F 81% 30.06 in 10.0 mi Calm Calm - N/A   Clear
11:55 PM 29.8 °F - 25.9 °F 85% 30.07 in 10.0 mi Calm Calm - N/A   Clear